Location: Krakow
(50.0830°N, 19.9170°E)
Time: 19:26:25
(UTC+01:00)

Vanguard 1 Rocket - Pass Details

Date: 24 December 2025
Orbit: 651 x 4216 km, 34.3° (Epoch: 19 January)

Event Time Altitude Azimuth Distance (km) Brightness Sun altitude
Exits shadow 05:10:49 10° 208° (SSW) 2,270 9.3 -22.3°
Maximum altitude 05:12:54 13° 182° (S) 1,973 9.2 -22.0°
Drops below altitude 10° 05:14:53 10° 156° (SSE) 2,072 9.7 -21.6°
Sets 05:18:23 0° 125° (SE) 2,969 11.2 -21.1°
